User: anonymous   Login
Location: Ferchesar
(52.6477°N, 12.4298°E)
Time: 08:39:08
(UTC+01:00)
Language:

Courier 1B - Orbit

View from above orbital plane
View from above orbital plane
View from above satellite
View from above satellite

Ground track
Ground track

The orbit data is extracted from the following two-line orbital elements,

1 00058U 60013A   21340.41628724  .00000109  00000-0  31838-4 0  9994
2 00058  28.3273 250.4685 0165074 194.8373 164.7284 13.46330230 11029
Epoch (UTC): 06 December 2021 09:59:27
Eccentricity: 0.0165074
inclination: 28.3273°
perigee height: 962 km
apogee height: 1209 km
right ascension of ascending node: 250.4685°
argument of perigee: 194.8373°
revolutions per day: 13.46330230
mean anomaly at epoch: 164.7284°
orbit number at epoch: 1102

The dashed part of the orbit path shows where the satellite is in the earth's shadow,  

DLR